Regional Weather Roundup
Issued by NWS

Home | Current Version | Previous Version | Graphics & Text | Print | Product List | Glossary On
Versions: 1 2 3 4 5 6 7 8 9 10 11 12 13 14 15 16 17 18 19 20 21 22 23 24 25 26 27 28 29 30 31 32 33 34 35 36 37 38 39 40 41 42 43 44 45 46 47 48 49 50
000
ASUS43 KLOT 181408
RWRIL

ILLINOIS REGIONAL WEATHER ROUNDUP
NATIONAL WEATHER SERVICE CHICAGO/ROMEOVILLE IL
900 AM CDT FRI AUG 18 2017

NOTE: "FAIR" INDICATES FEW OR NO CLOUDS BELOW 12,000 FEET WITH NO
SIGNIFICANT WEATHER AND/OR OBSTRUCTIONS TO VISIBILITY.

* THESE STATIONS ARE NOT UNDER NWS QUALITY CONTROL. THEY ALSO MAY NOT
  REPORT WEATHER SUCH AS PRECIPITATION OR FOG.

ILZ001-002-007-009-015-016-024-181500-
NORTHWEST ILLINOIS

CITY           SKY/WX    TMP DP  RH WIND       PRES   REMARKS
MOLINE         SUNNY     73  62  68 NW9       29.91F
STERLING*      SUNNY     69  64  84 W10       29.91R
SAVANNA*       SUNNY     68  61  78 W8        29.90S
$$

ILZ003-004-008-010-011-017-018-181500-
NORTH CENTRAL ILLINOIS

CITY           SKY/WX    TMP DP  RH WIND       PRES   REMARKS
ROCKFORD       MOSUNNY   69  63  81 NW10      29.88S
FREEPORT*      SUNNY     67  63  85 W9        29.91R
ROCHELLE*      SUNNY     68  63  82 W9        29.89R
DE KALB*       MOSUNNY   68  64  85 NW13G18   29.88S
PERU*          SUNNY     68  62  81 W10       29.91R
$$

ILZ005-006-012>014-019>023-181500-
NORTHEAST ILLINOIS

CITY           SKY/WX    TMP DP  RH WIND       PRES   REMARKS
CHICAGO-OHARE  PTSUNNY   71  61  70 NW13      29.85R
CHICAGO-MIDWAY CLOUDY    70  63  78 NW10      29.85S
AURORA         MOSUNNY   69  64  84 NW12      29.88R
LANSING*       CLOUDY    70  61  74 W9        29.87R
JOLIET*        MOSUNNY   71  66  83 W7        29.89R
WAUKEGAN       CLOUDY    68  63  84 NW6       29.83R
DUPAGE AIRPORT PTSUNNY   69  64  84 W14       29.86R
KANKAKEE*      PTSUNNY   70  65  86 W10       29.89S
WHEELING       PTSUNNY   69  63  81 NW10      29.86S
MORRIS*        SUNNY     69  64  84 W10       29.88R
ROMEOVILLE*    CLOUDY    69  62  80 NW10      29.88R
NORTHERLY ISL    N/A     70  61  73 W13         N/A
$$

LMZ740>746-181500-
SOUTHERN LAKE MICHIGAN

STATION/POSITION SKY/WX   TEMP    WIND        PRES    VSBY  WAVE
                          AIR SEA DIR/SP/G                  HT/PER
                          (F)     (DEG/KT/KT) (MB)    (MI)  (FT/S)
SOUTHERN BUOY              69 71  320/ 17/ 21 1008.5          4/ 5
WILMETTE HARBOR            69 72  290/ 14/ 21   N/A           1/ 2
CALUMET HARBOR             71     270/  3/ 12 1010.4R
BURNS HARBOR               70     280/ 11/ 14 1011.5R
MICHIGAN CITY              69     270/ 16/ 18   N/A
MICHIGAN CITY 6N           70 74  300/ 14/ 17   N/A           4/ 5
ST. JOSEPH                 70 73  310/ 16/ 19 1010.3          5/ 6
$$

ILZ025>027-034>036-040-047-049-050-058-095>099-181500-
WEST-CENTRAL ILLINOIS

CITY           SKY/WX    TMP DP  RH WIND       PRES   REMARKS
QUINCY         MOSUNNY   70  63  78 SW3       29.96S
GALESBURG*     SUNNY     69  64  85 W3        29.95S
MACOMB*        SUNNY     69  65  87 NW5       29.97F
JACKSONVILLE*  SUNNY     70  64  80 W6        29.98R
PITTSFIELD*    SUNNY     70  64  80 W5        30.00R
$$

ILZ028>032-037-038-041>044-048-051>054-059>061-181500-
CENTRAL ILLINOIS

CITY           SKY/WX    TMP DP  RH WIND       PRES   REMARKS
PONTIAC        SUNNY     70  67  90 NW12      29.92R
BLOOMINGTON    SUNNY     71  64  78 W10       29.95R
DECATUR        SUNNY     73  64  73 W9        29.95R
PEORIA         SUNNY     72  64  76 W9        29.95R
LACON*         SUNNY     70  64  79 W3        29.92R
LINCOLN*       SUNNY     72  65  81 NW3       29.95R
SPRINGFIELD    SUNNY     72  66  81 W7        29.97R
TAYLORVILLE    SUNNY     70  64  82 W7        29.97R
$$

ILZ033-039-045-046-055>057-062-063-181500-
EAST-CENTRAL ILLINOIS

CITY           SKY/WX    TMP DP  RH WIND       PRES   REMARKS
CHAMPAIGN      SUNNY     73  65  75 W9        29.93R
RANTOUL*       SUNNY     73  66  77 W9        29.92R
MATTOON        SUNNY     75  67  76 W7        29.92S
PARIS*         SUNNY     73  67  82 W8        29.93S
$$

ILZ079-100>102-181500-
SOUTHWEST ILLINOIS

CITY           SKY/WX    TMP DP  RH WIND       PRES   REMARKS
ALTON          MOSUNNY   72  64  78 W8        29.97R
BELLEVILLE     SUNNY     75  65  70 W7        29.98R
CAHOKIA*       SUNNY     74  65  73 W6        29.97R
SPARTA*        SUNNY     72  65  79 W6        29.99R
$$

ILZ064>066-069>071-074>076-080>082-084>086-088>090-092>094-181500-
SOUTH-CENTRAL ILLINOIS

CITY           SKY/WX    TMP DP  RH WIND       PRES   REMARKS
CARBONDALE     SUNNY     72  67  84 W7        29.98R
CAIRO*         SUNNY     73  68  86 W6        30.00R
EFFINGHAM*     SUNNY     74  68  83 W6        29.96R
MARION         SUNNY     75  68  78 W10       29.99R
MT. VERNON     SUNNY     73  66  78 W5        29.97R
CENTRALIA*     SUNNY     73  67  81 W5        29.96R
SALEM*         SUNNY     73  66  79 W3        29.96R
METROPOLIS*    SUNNY     75  68  80 W7        29.99S
$$

ILZ067-068-072-073-078-083-087-091-181500-
SOUTHEAST ILLINOIS

CITY           SKY/WX    TMP DP  RH WIND       PRES   REMARKS
LAWRENCEVILLE  SUNNY     75  66  73 NW6       29.94R
FLORA*         SUNNY     74  67  77 W3        29.95R
FAIRFIELD*     SUNNY     73  66  81 SW3       29.95R
HARRISBURG*    SUNNY     74  68  80 W8        29.97R
ROBINSON*      SUNNY     73  67  81 W6        29.94R
CARMI*         SUNNY     73  67  83 W7        29.95S
$$

ABBREVIATIONS USED IN REMARKS
   TC - TEMPERATURE IN CELSIUS
  WCI - WIND CHILL INDEX
   HX - HEAT INDEX
  VSB - VISIBILITY
$$




USA.gov is the U.S. government's official web portal to all federal, state and local government web resources and services.